Regional Weather Roundup
Issued by NWS

Home | Current Version | Previous Version | Text Only | Print | Product List | Glossary Off
Versions: 1 2 3 4 5 6 7 8 9 10 11 12 13 14 15 16 17 18 19 20 21 22 23 24 25 26 27 28 29 30 31 32 33 34 35 36 37 38 39 40 41 42 43 44 45 46 47 48 49 50

000
ASUS43 KMPX 271001
RWRMN
WEATHER ROUNDUP FOR MINNESOTA
NATIONAL WEATHER SERVICE TWIN CITIES/CHANHASSEN MN
400 AM CST MON FEB 27 2017


NOTE: "FAIR" INDICATES FEW OR NO CLOUDS BELOW 12,000 FEET WITH NO
SIGNIFICANT WEATHER AND/OR OBSTRUCTIONS TO VISIBILITY. N/A MEANS
CURRENT SKY AND/OR WEATHER CONDITIONS ARE NOT AVAILABLE.

MNZ060>063-068>070-271100-
   Twin Cities Metro

CITY           SKY/WX    TMP DP  RH WIND       PRES   REMARKS
TWIN CITIES    CLOUDY    25  20  81 S5        29.94F WCI  19
ST PAUL        CLOUDY    26  23  88 SE7       29.96F WCI  18
CRYSTAL        CLOUDY    26  20  77 S7        29.92F WCI  18
BLAINE         CLOUDY    28  23  80 S6        29.92F WCI  22
LAKEVILLE      CLEAR     21  19  93 S3        29.94S
EDEN PRAIRIE   PTCLDY    24  20  84 S6        29.93S WCI  17
SOUTH ST PAUL  MOCLDY    26  21  82 S3        29.95S
LAKE ELMO      CLOUDY    27  25  93 S6        29.95F WCI  20
$$
MNZ001>005-007-008-013>017-022>024-027-028-271100-
   Northwest Minnesota

CITY           SKY/WX    TMP DP  RH WIND       PRES   REMARKS
BEMIDJI        CLOUDY     1  -2  85 CALM      29.89F
HALLOCK        CLOUDY    12   9  85 S9        29.87F WCI   0
ROSEAU         CLOUDY     5   0  78 S6        29.87S WCI  -6
WARROAD        CLEAR      7   3  85 S7        29.87F WCI  -5
THIEF RVR FALL   N/A    N/A N/A N/A MISG        N/A
CROOKSTON      CLOUDY    12   9  85 S7        29.92F WCI   2
FOSSTON        CLOUDY     7   5  92 S6        29.90S WCI  -3
DETROIT LAKES  FLURRIES  19  14  79 CALM      29.89F
MOORHEAD       CLOUDY    19  12  73 CALM      29.92F
PARK RAPIDS    CLOUDY    18   9  68 E3        29.88F
MAHNOMEN       FAIR      14  10  85 SE5       29.89F WCI   6
$$
MNZ006-009>011-018-025>026-271100-
   North Central Minnesota

CITY           SKY/WX    TMP DP  RH WIND       PRES   REMARKS
BAUDETTE       CLEAR      5   1  83 S6        29.88R WCI  -6
FLAG ISLAND    PTCLDY     7   3  85 SW8       29.85S WCI  -6
INTL FALLS     CLEAR      2  -2  83 CALM      29.90R
WASKISH        CLOUDY     7   3  85 S3        29.90S
BIG FORK       CLOUDY    -6  -9  84 CALM      29.91S
LONGVILLE      CLOUDY    12   9  85 CALM      29.92S
GRAND RAPIDS   CLOUDY    11   6  81 CALM      29.93F
CRANE LAKE     CLEAR     -8  -9  92 CALM      29.95S
ORR            CLEAR      3  -4  72 CALM      29.89S
COOK           CLOUDY    -6  -9  84 CALM      29.92S
WALKER         CLOUDY    12   8  82 CALM      29.91S
$$
MNZ012-019>021-037-271100-
   Northeast Minnesota

CITY           SKY/WX    TMP DP  RH WIND       PRES   REMARKS
DULUTH         CLOUDY    16   6  65 CALM      29.92S
ELY            CLEAR     -8  -9  92 CALM      29.92S
HIBBING        CLOUDY     2  -3  80 CALM      29.92S
EVELETH        CLOUDY     2  -3  78 CALM      29.93S
DULUTH HARBOR  CLOUDY    18   9  68 CALM      29.98S
TWO HARBORS    CLOUDY    12   5  73 CALM      29.93S
SILVER BAY     CLOUDY     1   0  92 CALM      29.94S
GRAND MARAIS     N/A     15   1  53 NW10      29.98S WCI   2
G MARAIS ARPRT CLEAR      1  -8  66 CALM      29.89S
$$
MNZ029>031-032-039>041-046>048-054>057-064-271100-
   West Central Minnesota

CITY           SKY/WX    TMP DP  RH WIND       PRES   REMARKS
FERGUS FALLS   CLOUDY    18  12  79 W5        29.95R WCI  11
WHEATON        CLOUDY    19  18  93 N3        29.91S
MORRIS         CLEAR     21  18  86 E8        29.86F WCI  12
ALEXANDRIA     CLOUDY    21  18  88 E7        29.87F WCI  12
ELBOW LAKE     CLOUDY    18  16  89 NE3       29.88F
WADENA         CLOUDY    16  10  79 CALM      29.89S
GLENWOOD       CLOUDY    19  19 100 NE8       29.87F WCI   9
APPLETON       PTCLDY    25  21  86 CALM      29.87S
BENSON         CLOUDY    27  18  69 SE5       29.88F WCI  21
ORTONVILLE       N/A     21  18  86 CALM      29.86F
MADISON        PTCLDY    28  27  93 CALM      29.87F
WILLMAR        MOCLDY    28  27  93 CALM      29.89F
$$
MNZ033>034-036-042>043-049>051-058-059-271100-
   Central Minnesota

CITY           SKY/WX    TMP DP  RH WIND       PRES   REMARKS
ST CLOUD       CLOUDY    24  18  77 E3        29.91S
SAUK CENTRE    FAIR      20  18  92 E5        29.89F WCI  13
PAYNESVILLE    CLOUDY    24  19  83 NE5       29.90S WCI  18
AITKIN         CLOUDY    19  10  68 CALM      29.91S
PINE RIVER     CLOUDY    16  10  79 CALM      29.95S
BRAINERD       CLOUDY    18  12  77 CALM      29.92S
STAPLES        CLOUDY    16  10  79 E3        29.89F
LONG PRAIRIE   CLOUDY    21  18  86 N5        29.90S WCI  15
LITTLE FALLS   CLOUDY    21  18  86 CALM      29.91F
LITCHFIELD     PTCLDY    27  25  93 CALM      29.90S
BUFFALO        MOCLDY    26  22  82 SE3       29.92F
MAPLE LAKE     CLOUDY    28  23  82 CALM      29.91F
HUTCHINSON     CLOUDY    26  25  95 SE3       29.91S
$$
MNZ037-044-045-052-053-271100-
   East Central Minnesota

CITY           SKY/WX    TMP DP  RH WIND       PRES   REMARKS
PRINCETON      CLOUDY    25  19  80 CALM      29.92R
MORA           CLOUDY    19  18  93 CALM      29.95F
CAMBRIDGE      CLOUDY    27  18  69 CALM      29.92S
RUSH CITY      CLOUDY    23  19  86 NE3       29.94F
MOOSE LAKE     CLOUDY    18   9  68 CALM      29.93S
HINCKLEY       FLURRIES  23  18  80 CALM      29.95S
CLOQUET        CLOUDY    12   7  79 CALM      29.92F
MCGREGOR       CLOUDY    18  14  86 CALM      29.93S
$$
MNZ071>073-080-081-089-090-097-098-271100-
   Southwest Minnesota

CITY           SKY/WX    TMP DP  RH WIND       PRES   REMARKS
MONTEVIDEO     CLOUDY    28  25  86 SW5       29.89F WCI  23
GRANITE FALLS  PTCLDY    29  24  83 S7        29.89F WCI  22
CANBY          CLEAR     29  23  77 SW13      29.87S WCI  19
MARSHALL       CLEAR     29  21  72 SW15      29.87F WCI  18
REDWOOD FALLS  CLEAR     28  21  75 SW10      29.89F WCI  19
OLIVIA         CLEAR     27  23  86 S5        29.89S WCI  21
PIPESTONE      CLEAR     25  19  80 SW10      29.87F WCI  15
WINDOM         CLEAR     28  23  80 S8        29.91S WCI  20
WORTHINGTON    CLEAR     26  21  81 SW13      29.91F WCI  15
JACKSON        PTCLDY    23  19  86 S7        29.92F WCI  15
TRACY          CLEAR     29  24  79 SW15      29.88F WCI  18
SLAYTON        CLEAR     25  22  87 SW13      29.89F WCI  14
$$
MNZ065>067-074>077-082>085-091>093-271100-
   South Central Minnesota

CITY           SKY/WX    TMP DP  RH WIND       PRES   REMARKS
MANKATO          N/A     20  16  84 S7        29.94F WCI  11
NEW ULM        PTCLDY    25  21  86 S6        29.92S WCI  18
ST JAMES       CLEAR     27  21  80 CALM      29.94S
FAIRMONT       CLEAR     18  14  84 S12       29.95S WCI   5
GLENCOE        CLEAR     27  26  96 CALM      29.91S
FARIBAULT      CLEAR     19  16  86 S7        29.95F WCI  10
OWATONNA       CLEAR     23  16  74 S14       29.94F WCI  11
WASECA         CLEAR     19  16  86 S9        29.96S WCI   9
ALBERT LEA     CLEAR     18  18 100 S5        29.97S WCI  11
$$
MNZ078>079-086>088-094>096-271100-
   Southeast Minnesota

CITY           SKY/WX    TMP DP  RH WIND       PRES   REMARKS
ROCHESTER      CLEAR     14  13  95 S8        29.96F WCI   3
RED WING       PTCLDY    21  18  86 CALM      29.97F
STANTON        CLEAR     22  17  80 S5        29.94F WCI  16
WINONA         CLEAR     19  18  93 CALM      30.02S
AUSTIN         CLOUDY    16  12  86 S5        29.98R WCI   9
PRESTON        CLEAR     19  17  92 S12       29.99S WCI   6
$$
ABBREVIATIONS USED IN REMARKS
   TC - TEMPERATURES IN CELSIUS
  WCI - WIND CHILL INDEX
   HX - HEAT INDEX
  VSB - VISIBILITY
$$




USA.gov is the U.S. government's official web portal to all federal, state and local government web resources and services.